Terminal Aerodrome Forecast
Issued by NWS

Home | Current Version | Previous Version | Text Only | Print | Product List | Glossary On
Versions: 1 2 3 4 5 6 7 8 9 10 11 12 13 14 15 16 17 18 19 20 21 22 23 24 25 26 27 28 29 30 31 32 33 34 35 36 37 38 39
000
FTAK31 PAFA 042334
TAFAOM
TAF
PAOM 042334Z 0500/0524 27018KT P6SM FEW015 SCT260
     FM050400 36015KT P6SM FEW015 FEW250
     FM051700 01010KT P6SM SCT250=

USA.gov is the U.S. government's official web portal to all federal, state and local government web resources and services.